Find Starlink 4791

NORAD ID: 53936 Int'l Des: 2022-119 Owner: SPXS Country: US Constellation: starlink operational
LEOCIRCULAR

Live Position

Loading 3D Globe...

About Starlink 4791

Description loading...

Upcoming Passes

Passes for default location (London). Set your location on the main map for personalized predictions.

Altitude History

Loading altitude history...

Two-Line Element Set

1 53936U 22119BC 26111.70997747 .00000742 00000-0 64717-4 0 9994
2 53936 53.2170 105.7278 0001217 80.9953 279.1177 15.08842313198547
Epoch: Apr 21, 2026 • Age: 24 hours

Current Status

Altitude 542.0 km
Velocity 7.60 km/s
Sub-Earth Point 37.09°N, 28.16°E
Launch Date Sep 24, 2022
Age 3.5 years
Type internet

Technical Details

Classification Payload
Mass 305.00 kg
Dry Mass 290.00 kg
Total Mass 305.00 kg
Length 0.20 m
Diameter 2.80 m
Span 9.00 m
Shape Box + pan
Manufacturer SPXS
Bus Type Starlink
Phase Status In Orbit
Owner/State SPXS/US

Most Searched